Weather History for Denver Centennial, CO

Change the Weather History Date:

Friday, July 5, 2013

  Actual Average Record
Temperature  
Mean Temperature 76 °F -  
Max Temperature 89 °F 86 °F 97 °F (2001)
Min Temperature 62 °F 55 °F 51 °F (2010)
Cooling Degree Days 11    
Month to date cooling degree days 31  
Growing Degree Days 25 (Base 50)    
Moisture  
Dew Point 48 °F    
Average Humidity 40    
Maximum Humidity 57    
Minimum Humidity 22    
Precipitation  
Precipitation 0.01 in - - ()
Month to date precipitation 0.07  
Year to date precipitation 6.04  
Sea Level Pressure  
Sea Level Pressure 29.78 in    
Wind  
Wind Speed 7 mph (WSW)    
Max Wind Speed 29 mph    
Max Gust Speed 36 mph    
Visibility 10 miles    
Events Rain , Thunderstorm    
Averages and records for this station are not official NWS values.
T = Trace of Precipitation, MM = Missing Value Source: NWS Daily Summary

Daily Weather History Graph

Daily Weather History Graph

Search for Another Location

Airport:

Trip Planner

Search our weather history database for the weather conditions in past years. The results will help you decide how hot, cold, wet, or windy it might be!

Date:

Astronomy

Jul. 05, 2013 Rise Set
Actual Time 5:37 AM MDT 8:29 PM MDT
Civil Twilight 5:05 AM MDT 9:02 PM MDT
Nautical Twilight 4:25 AM MDT 9:42 PM MDT
Astronomical Twilight 3:38 AM MDT 10:28 PM MDT
Moon 3:38 AM MDT (7/5) 6:27 PM MDT (7/5)
Length of Visible Light 15h 56m
Length of Day
14h 51m
Waning Crescent, 6% of the Moon is Illuminated
Jul 5
Waning Crescent
Jul 8
New
Jul 15
First Quarter
Jul 22
Full
Jul 29
Last Quarter

Hourly Weather History & Observations

Time (MDT) Temp. Dew Point Humidity Pressure Visibility Wind Dir Wind Speed Gust Speed Precip Events Conditions
12:53 AM 68.0 °F 44.1 °F 42% 29.76 in 10.0 mi SE 6.9 mph - N/A   Partly Cloudy
1:53 AM 64.0 °F 44.1 °F 48% 29.76 in 10.0 mi Calm Calm - N/A   Partly Cloudy
2:53 AM 63.0 °F 45.0 °F 52% 29.76 in 10.0 mi SW 6.9 mph - N/A   Scattered Clouds
3:53 AM 64.0 °F 44.1 °F 48% 29.74 in 10.0 mi WSW 6.9 mph - N/A   Scattered Clouds
4:53 AM 63.0 °F 44.1 °F 50% 29.74 in 10.0 mi SW 6.9 mph - N/A   Scattered Clouds
5:53 AM 66.9 °F 45.0 °F 45% 29.76 in 10.0 mi SW 5.8 mph - N/A   Mostly Cloudy
6:53 AM 70.0 °F 44.1 °F 39% 29.75 in 10.0 mi SW 9.2 mph - 0.00 in   Mostly Cloudy
7:53 AM 69.1 °F 50.0 °F 51% 29.76 in 10.0 mi SE 4.6 mph - 0.01 in Rain Rain
8:53 AM 73.0 °F 52.0 °F 48% 29.77 in 10.0 mi North 5.8 mph - 0.00 in   Mostly Cloudy
9:53 AM 75.0 °F 48.0 °F 38% 29.77 in 10.0 mi Variable 4.6 mph - N/A   Mostly Cloudy
10:53 AM 80.1 °F 46.9 °F 31% 29.74 in 10.0 mi Variable 3.5 mph - N/A   Scattered Clouds
11:53 AM 84.0 °F 45.0 °F 25% 29.72 in 10.0 mi Calm Calm - N/A   Scattered Clouds
12:53 PM 86.0 °F 44.1 °F 23% 29.70 in 10.0 mi Calm Calm - N/A   Scattered Clouds
1:53 PM 87.1 °F 44.1 °F 22% 29.69 in 10.0 mi Variable 5.8 mph - N/A   Scattered Clouds
2:53 PM 87.1 °F 45.0 °F 23% 29.70 in 10.0 mi WNW 8.1 mph - N/A   Mostly Cloudy
3:16 PM 82.4 °F 46.4 °F 28% 29.95 in 10.0 mi WNW 24.2 mph 35.7 mph 0.00 in Rain , Thunderstorm Light Thunderstorms and Rain
3:45 PM 80.6 °F 48.2 °F 32% 29.95 in 10.0 mi NW 13.8 mph - 0.00 in   Mostly Cloudy
3:53 PM 81.0 °F 46.9 °F 30% 29.72 in 10.0 mi NNW 12.7 mph - 0.00 in   Mostly Cloudy
4:53 PM 82.9 °F 45.0 °F 26% 29.71 in 10.0 mi NNE 10.4 mph - N/A   Mostly Cloudy
5:53 PM 75.0 °F 54.0 °F 48% 29.76 in 10.0 mi North 12.7 mph - 0.00 in   Mostly Cloudy
6:26 PM 77.0 °F 51.8 °F 41% 29.99 in 10.0 mi North 5.8 mph - N/A Thunderstorm Thunderstorm
6:53 PM 77.0 °F 50.0 °F 39% 29.76 in 10.0 mi NE 6.9 mph - N/A Thunderstorm Thunderstorm
7:06 PM 77.0 °F 50.0 °F 39% 30.00 in 10.0 mi Variable 5.8 mph - N/A   Mostly Cloudy
7:53 PM 73.0 °F 54.0 °F 51% 29.80 in 10.0 mi SSW 5.8 mph - N/A   Mostly Cloudy
8:53 PM 72.0 °F 54.0 °F 53% 29.78 in 10.0 mi SSW 6.9 mph - N/A   Mostly Cloudy
9:53 PM 70.0 °F 53.1 °F 55% 29.80 in 10.0 mi WSW 8.1 mph - N/A   Mostly Cloudy
10:53 PM 69.1 °F 53.1 °F 57% 29.76 in 10.0 mi SW 11.5 mph - N/A   Mostly Cloudy
11:53 PM 70.0 °F 51.1 °F 51% 29.74 in 10.0 mi SW 13.8 mph - N/A   Mostly Cloudy